Weather History for La Paz, B. C. S., Mexico

Change the Weather History Date:

Tuesday, July 9, 2013

  Actual Average Record
Temperature  
Mean Temperature 84 °F -  
Max Temperature 96 °F 97 °F - ()
Min Temperature 73 °F 74 °F - ()
Cooling Degree Days 20    
Growing Degree Days 34 (Base 50)    
Moisture  
Dew Point 70 °F    
Average Humidity 63    
Maximum Humidity 92    
Minimum Humidity 43    
Precipitation  
Precipitation 0.00 in - - ()
Sea Level Pressure  
Sea Level Pressure 29.99 in    
Wind  
Wind Speed 5 mph ()    
Max Wind Speed 14 mph    
Max Gust Speed -    
Visibility 10.0 miles    
Events      
T = Trace of Precipitation, MM = Missing Value Source: Averaged Metar Reports

Daily Weather History Graph

Daily Weather History Graph

Search for Another Location

Airport:

Trip Planner

Search our weather history database for the weather conditions in past years. The results will help you decide how hot, cold, wet, or windy it might be!

Date:

Astronomy

Jul. 09, 2013 Rise Set
Actual Time 6:40 AM MDT 8:12 PM MDT
Civil Twilight 6:14 AM MDT 8:38 PM MDT
Nautical Twilight 5:44 AM MDT 9:08 PM MDT
Astronomical Twilight 5:13 AM MDT 9:39 PM MDT
Moon 7:53 AM MDT (7/9) 9:09 PM MDT (7/9)
Length of Visible Light 14h 23m
Length of Day
13h 32m
New Moon, 2% of the Moon is Illuminated
Jul 9
New Moon
Jul 15
First Quarter
Jul 22
Full
Jul 29
Last Quarter
Aug 6
New

Hourly Weather History & Observations

Time (MDT) Temp. Heat Index Dew Point Humidity Pressure Visibility Wind Dir Wind Speed Gust Speed Precip Events Conditions
2:45 AM 76 °F - 73 °F 88% 29.95 in 2 mi South 6.7 mph - -  
5:40 AM 74 °F - 72 °F 92% 29.99 in 2 mi South 2.2 mph - -  
6:12 AM 71.6 °F - 68.0 °F 88% 30.02 in 8.0 mi Calm Calm - N/A   Clear
6:49 AM 69.8 °F - 66.2 °F 88% 29.98 in 10.0 mi Calm Calm - N/A   Clear
7:41 AM 71.6 °F - 68.0 °F 88% 30.00 in 10.0 mi North 4.6 mph - N/A   Partly Cloudy
8:40 AM 79 °F - 75 °F 83% 30.05 in 16 mi South 2.2 mph - -   Clear
9:50 AM 80.6 °F 83.9 °F 69.8 °F 70% 30.02 in 10.0 mi North 4.6 mph - N/A   Scattered Clouds
10:40 AM 82.4 °F 86.3 °F 69.8 °F 66% 30.03 in 10.0 mi Calm Calm - N/A   Scattered Clouds
11:46 AM 86.0 °F 89.4 °F 68.0 °F 55% 30.07 in 10.0 mi NNE 6.9 mph - N/A   Scattered Clouds
11:50 AM 88 °F - 75 °F 58% 30.02 in 19 mi NNW 4.5 mph - -   Scattered Clouds
12:41 PM 87.8 °F 91.4 °F 68.0 °F 52% 30.00 in 10.0 mi NNW 9.2 mph - N/A   Mostly Cloudy
1:43 PM 89.6 °F 93.4 °F 68.0 °F 49% 29.98 in 10.0 mi NNE 3.5 mph - N/A   Mostly Cloudy
2:45 PM 89.6 °F 93.4 °F 68.0 °F 49% 30.06 in 10.0 mi North 11.5 mph - N/A   Mostly Cloudy
2:50 PM 96 °F - 76 °F 44% 29.97 in 19 mi NW 8.9 mph - -   Scattered Clouds
3:53 PM 91.4 °F 94.0 °F 66.2 °F 43% 29.93 in 10.0 mi North 9.2 mph - N/A   Mostly Cloudy
4:47 PM 89.6 °F 92.2 °F 66.2 °F 46% 29.92 in 10.0 mi West 9.2 mph - N/A   Mostly Cloudy
5:45 PM 91 °F - 75 °F 50% 29.92 in 19 mi West 6.7 mph - -   Partly Cloudy
5:50 PM 87.8 °F 90.4 °F 66.2 °F 49% 30.01 in 10.0 mi SW 13.8 mph - N/A   Mostly Cloudy
6:45 PM 86.0 °F 88.2 °F 66.2 °F 51% 29.93 in 10.0 mi SW 9.2 mph - N/A   Mostly Cloudy
7:44 PM 84.2 °F 86.6 °F 66.2 °F 55% 29.94 in 10.0 mi SSW 9.2 mph - N/A   Mostly Cloudy
8:45 PM 85 °F - 74 °F 62% 29.94 in 2 mi SSW 6.7 mph - -   Partly Cloudy
8:48 PM 82.4 °F 84.6 °F 66.2 °F 58% 30.06 in 10.0 mi SSW 6.9 mph - N/A   Mostly Cloudy
9:46 PM 82.4 °F 85.4 °F 68.0 °F 62% 29.97 in 10.0 mi SSW 6.9 mph - N/A   Mostly Cloudy
10:47 PM 80.6 °F 83.2 °F 68.0 °F 65% 30.00 in 10.0 mi South 5.8 mph - N/A   Scattered Clouds
11:50 PM 82 °F - 75 °F 74% 30.00 in 2 mi South 6.7 mph - -   Scattered Clouds